User: anonymous   Login
Location: Unspecified
(0.0000°N, 0.0000°E)
Time: 08:04:04
(UTC+00:00)
Language:

BEESAT - Orbit

View from above orbital plane
View from above orbital plane
View from above satellite
View from above satellite

Ground track
Ground track

The orbit data is extracted from the following two-line orbital elements,

1 35933U 09051C   20192.00727494  .00000059  00000-0  24348-4 0  9994
2 35933  98.6104  16.8808 0006987  74.7202 285.4767 14.56479191573265
Epoch (UTC): 10 July 2020 00:10:28
Eccentricity: 0.0006987
inclination: 98.6104°
perigee height: 699 km
apogee height: 709 km
right ascension of ascending node: 16.8808°
argument of perigee: 74.7202°
revolutions per day: 14.56479191
mean anomaly at epoch: 285.4767°
orbit number at epoch: 57326

The dashed part of the orbit path shows where the satellite is in the earth's shadow,  

DLR